Погода Благодарный

Погода Благодарный : погода сейчас, прогноз погоды и архив. Всё, что Вы хотите узнать о погоде Благодарный!

Поиск расширенной информации на нашем сайте:

Другие новости

Новости СМИ2

Главная страница сайта

Новости сайта

02.10.2013

Напоминаем, что на нашем новом сайте вы можете получить высокодетализированные прогнозы погоды по пунктам России, СНГ и мира (включающие важные для авиации метеовеличины, такие как направление и скорость ветра, видимость, явления погоды, количество и форма облачности, нижняя и верхняя граница облачности), а также ознакомиться с разнообразными материалами по авиационной метеорологии и подборкой полезных ссылок на эту тему.

Сайт Метеоцентр.Азия посвящён разработке технологий оптимизации авиаметеорологического обслуживания, включая проектирование и перспективное создание нескольких автоматизированных авиаметеорологических систем:
- система выпуска высокодетальных прогностических карт явлений погоды для нижнего воздушного пространства по России и ближнему зарубежью;
- система верификации прогнозов TAF (выпускаемых синоптиками официальных АМСГ РФ и ближнего зарубежья) и AUTOTAF (выпускаемых сайтом Метеоцентр.Азия) - выявление ошибок, онлайн-сопоставление с фактической погодой METAR, автоматическое внесение коррективов в прогнозы при резком отклонении фактической погоды от прогноза, подсчёт оправдываемости прогнозов по элементам и в целом;
- система обработки, анализа и отображения авиаметеорологической информации для применения провайдерами метеорологической информации.


Погода Благодарный - сегодня

Время (UTC), дата Ветер
(°,м/с) 
Видим.   Явления Облачность Т
(°С)
Тd
(°С)
f(%) Тe
(°С)
Pmin
(гПа)
dP
(гПа)
Po
(мм)
O2
(г/м3)
Тmin Tmax R s Состояние
почвы
09 25.06.17 290 (З) 20000 м    8/8 600 м 
[Sc]
+24.5 +16.1 59 +35  1012.7  0.6  746  272           
12 25.06.17 310 (СЗ) 20000 м    9/9 600 м 
[Sc]
+23.6 +14.4 56 +31  1013.7  0.9  746  274           
15 25.06.17 320 (СЗ) 20000 м    1/1 600 м 
[Sc]
+24.8 +10.8 41 +27  1014.7  1.1  747  274    +25.4  0.3     
18 25.06.17 310 (СЗ) 20000 м    ясно 
+18 +11.7 67 +23  1017.1  1.9  749  281           
21 25.06.17 тихо ()   20000 м    ясно 
+13.7 +11.7 88 +17  1018.6  1.2  749  285           
00 26.06.17 030 (СВ) 20000 м    ясно 
+11.4 +10.6 95 +15  1018.6  -0.2  749  288           
03 26.06.17 тихо ()   20000 м    ясно 
+14.9 +12 83 +19  1018.3  -0.2  749  284  +11.2        сухая 
06 26.06.17 100 (В) 20000 м    ясно 
+24.5 +13.7 51 +31  1017.2  -0.5  749  274           
09 26.06.17 100 (В) 20000 м    ясно 
+27.7 +10.6 34 +30  1016.4  -0.6  749  272           
12 26.06.17 140 (ЮВ) 20000 м    3/3 1000 м 
[Sc]
+28.9 +10.3 31 +31  1015.2  -1.1  748  271           
15 26.06.17 120 (ЮВ) 20000 м    ясно 
+29 +9.5 30 +30  1014.3  -0.9  747  270    +29.9       
18 26.06.17 080 (В) 20000 м    ясно 
+21.9 +10.1 47 +23  1014.7  747  277           
21 26.06.17 070 (В) 20000 м    ясно 
+18.5 +11.5 64 +22  1015.2  0.2  747  280           
00 27.06.17 040 (СВ) 20000 м    ясно 
+14.1 +11.3 83 +18  1015  -0.4  747  284           
03 27.06.17 090 (В) 20000 м    ясно 
+15.7 +12.7 82 +21  1015.3  0.4  747  282  +12.7        сухая 
06 27.06.17 130 (ЮВ) 20000 м    1/0 верхняя 
[Ci fib]
+23.5 +13.8 54 +30  1013.9  -0.9  746  274           
09 27.06.17 110 (В) 20000 м    ясно 
+28.1 +13.3 40 +34  1012  -1.6  745  270           
12 27.06.17 090 (В) 20000 м    ясно 
+31.2 +12.4 32 +36  1009.9  -1.9  744  267           
15 27.06.17 130 (ЮВ) 20000 м    ясно 
+31.5 +12.9 32 +37  1009.1  -0.9  743  266    +32.1       
18 27.06.17 070 (В) 20000 м    6/4 600 м средняя 
[Sc|Ac trans]
+25.6 +16.2 56 +37  1010.6  1.1  744  271           
21 27.06.17 110 (В) 20000 м    3/3 600 м 
[Sc]
+23.4 +15.3 60 +33  1009.7  -1  743  273           
00 28.06.17 тихо ()   20000 м    ясно 
+18.9 +16.2 84 +30  1010.9  0.9  744  277           
03 28.06.17 080 (В) 20000 м    ясно 
+20.5 +17.1 81 +33  1011.1  0.2  744  275  +17.4        сухая 
06 28.06.17 060 (СВ) 20000 м    1/0 средняя 
[Ac trans]
+27.4 +18.9 60 +44  1010.6  744  268           
09 28.06.17 220 (ЮЗ) 20000 м    3/1 1000 м средняя 
[Sc|Ac trans]
+31.5 +14.9 37 +40  1009.9  -0.5  744  266           
Время (UTC), дата Ветер
(°,м/с) 
Видим.   Явления Облачность Т
(°С)
Тd
(°С)
f(%) Тe
(°С)
Pmin
(гПа)
dP
(гПа)
Po
(мм)
O2
(г/м3)
Тmin Tmax R s Состояние
почвы

Для получения пояснительной информации подведите курсор к названию столбца.

ПОГОДА Благодарный - архив

Всё, что Вы хотите узнать о погоде Благодарный - удобно и подробно!

Выберите нужную дату (начиная с 1 января 2015* года) и нажмите кнопку "Найти".
Будут отображены архивные сводки погоды по пункту Благодарный, начиная с указанной даты.


Отображать данные в формате CSV (для использования в таблицах Excel)


Внимание! Наш архив погоды предназначен исключительно для личного некоммерческого использования в познавательных целях. Если Вам необходимы официальные справки о состоянии погоды (для производственных, юридических, коммерческих и т.п. целей), обращайтесь в органы Росгидромета.

*Примечание: данная дата относится к архиву по метеостанциям СССР (Россия, СНГ, Балтия).
Архив по метеостанциям Зарубежной Европы и Азии (кроме Китая) хранится 10 дней, по другим регионам земного шара (Китай, Африка, Америка, Австралия, Океания) - 1 день.

Благодарный - район местоположения метеостанции


Название, широта, долгота, высота метеостанции:
Благодарный 45.1°ш. 43.4°д. 162 м над ур. моря [Российская Федерация]

Дополнительная информация

В oтличие oт бoльшинства пoгoдных сайтoв мы публикуем пoдрoбную метеoинфoрмацию в детальнoм прoфессиoнальнoм фoрмате.

Характеристики температуры и влажнoсти вoздуха измеряются на высoте 2 м в тени вдали oт зданий и деревьев.
Скoрoсть ветра измеряется на высoте 10 м (на урoвне рoста челoвека скoрoсть ветра ниже в 1.5-2 раза). Если метеoстанция нахoдится в гoрoде или в лесу, тo скoрoсть ветра занижена на 2-4 м/с пo сравнению с oткрытым местoм. Скoрoсть ветра над акватoриями крупных рек и oзёр, а также на вершинах хoлмoв на 2-5 м/с выше, чем в oбычных услoвиях.
Атмoсфернoе давление в разных тoчках местнoсти мoжет значительнo oтличаться oт давления на метеoстанции, в зависимoсти oт услoвий рельефа (при пoдъёме на 10 м давление пoнижается примернo на 1 мм рт.ст.).